Regional Weather Roundup
Issued by NWS

Home | Current Version | Previous Version | Graphics & Text | Print | Product List | Glossary On
Versions: 1 2 3 4 5 6 7 8 9 10 11 12 13 14 15 16 17 18 19 20 21 22 23 24 25 26 27 28 29 30 31 32 33 34 35 36 37 38 39 40 41 42 43 44 45 46 47 48 49 50
000
ASUS44 KMEG 300200
RWRTN
TENNESSEE HOURLY STATE WEATHER ROUNDUP
NATIONAL WEATHER SERVICE MEMPHIS TN
900 PM CDT TUE JUL 29 2014

TNZ002-004-019-021-049-052-054-088>092-300300-
WEST TENNESSEE

CITY           SKY/WX    TMP DP  RH WIND       PRES   REMARKS
MEMPHIS INTL   PTCLDY    74  53  48 NE6       30.09S
NWS MEMPHIS      N/A     67 N/A N/A MISG        N/A
JACKSON        CLEAR     64  58  80 CALM      30.10R
DYERSBURG      CLEAR     64  52  63 CALM      30.10S
PARIS          CLEAR     57  54  88 CALM      30.10R
SAVANNAH       CLEAR     63  61  94 CALM      30.10R
$$

TNZ008-025-027-028-033-062-065-066-300300-
NORTH MIDDLE TENNESSEE

CITY           SKY/WX    TMP DP  RH WIND       PRES   REMARKS
NASHVILLE      CLEAR     73  53  49 N3        30.08R
CLARKSVILLE    CLEAR     67  52  58 N3        30.07S
COOKEVILLE     CLEAR     61  57  88 CALM      30.09R
CROSSVILLE     CLEAR     62  54  74 CALM      30.12R
$$

TNZ061-075-076-078-094-096-097-300300-
SOUTH MIDDLE TENNESSEE

CITY           SKY/WX    TMP DP  RH WIND       PRES   REMARKS
FAYETTEVILLE   PTCLDY    64  54  68 CALM      30.09R
WINCHESTER     CLEAR     63  57  82 CALM      30.09R
SHELBYVILLE    PTCLDY    64  59  82 CALM      30.09R
$$

TNZ017-018-042-046-047-300300-
NORTHEAST TENNESSEE

CITY           SKY/WX    TMP DP  RH WIND       PRES   REMARKS
TRI CITIES     PTCLDY    63  50  62 CALM      30.09R
ELIZABETHTON   CLOUDY    61  54  77 CALM        N/A
$$

TNZ012-013-036-069-073-074-300300-
CENTRAL EAST TENNESSEE

CITY           SKY/WX    TMP DP  RH WIND       PRES   REMARKS
KNOXVILLE      PTCLDY    66  53  63 CALM      30.08R
OAK RIDGE      CLEAR     64  55  72 CALM      30.10R
GATLINBURG     CLOUDY    64  54  68 CALM      30.09R
$$

TNZ083-085-099-300300-
SOUTHEAST TENNESSEE

CITY           SKY/WX    TMP DP  RH WIND       PRES   REMARKS
CHATTANOOGA    CLEAR     68  54  60 NW6       30.07R
$$

SKY/WX REPORTED AS FAIR MEANS FEW OR NO CLOUDS BELOW
12 THOUSAND FEET.




USA.gov is the U.S. government's official web portal to all federal, state and local government web resources and services.